Poughkeepsie, NY

7:33 PM EDT on April 30, 2017 (GMT -0400)
Dutchess County

Weather History for KPOU - November, 2010

Change the Weather History Date:

Monday, November 1, 2010

  Actual Average Record
Temperature  
Mean Temperature 37 °F 46 °F  
Max Temperature 48 °F 58 °F 82 °F (1950)
Min Temperature 26 °F 34 °F 21 °F (1964)
Degree Days  
Heating Degree Days 28 19  
Month to date heating degree days 28 19  
Since 1 July heating degree days 482 595  
Cooling Degree Days 0 0  
Month to date cooling degree days 0 0  
Year to date cooling degree days 911 672  
Moisture  
Dew Point 26 °F    
Average Humidity 66    
Maximum Humidity 92    
Minimum Humidity 45    
Precipitation  
Precipitation 0.00 in 0.12 in 1.28 in (1988)
Month to date precipitation 0.00 0.12  
Year to date precipitation 33.77 39.65  
Sea Level Pressure  
Sea Level Pressure 30.31 in    
Wind  
Wind Speed 4 mph (NNW)    
Max Wind Speed 16 mph    
Max Gust Speed 22 mph    
Visibility 10 miles    
Events      
T = Trace of Precipitation, MM = Missing Value Source: NWS Daily Summary

Daily Weather History Graph

Daily Weather History Graph

Search for Another Location

Airport or City:

Trip Planner

Search our weather history database for the weather conditions in past years. The results will help you decide how hot, cold, wet, or windy it might be!

Date:

Astronomy

Nov. 01, 2010 Rise Set
Actual Time 7:27 AM EDT 5:50 PM EDT
Civil Twilight 6:58 AM EDT 6:19 PM EDT
Nautical Twilight 6:25 AM EDT 6:51 PM EDT
Astronomical Twilight 5:53 AM EDT 7:24 PM EDT
Moon 1:56 AM EDT (11/1) 3:00 PM EDT (11/1)
Length of Visible Light 11h 20m
Length of Day
10h 22m
Waning Crescent, 26% of the Moon is Illuminated
Nov 1
Waning Crescent
Nov 6
New
Nov 13
First Quarter
Nov 21
Full
Nov 28
Last Quarter

Hourly Weather History & Observations

Time (EDT) Temp. Windchill Dew Point Humidity Pressure Visibility Wind Dir Wind Speed Gust Speed Precip Events Conditions
12:53 AM 32.0 °F - 28.0 °F 85% 30.15 in 10.0 mi Calm Calm - N/A   Mostly Cloudy
1:53 AM 30.9 °F - 28.0 °F 89% 30.16 in 10.0 mi Calm Calm - N/A   Partly Cloudy
2:53 AM 28.9 °F - 26.1 °F 89% 30.18 in 10.0 mi Calm Calm - N/A   Clear
3:53 AM 34.0 °F 28.0 °F 23.0 °F 64% 30.19 in 10.0 mi North 6.9 mph - N/A   Clear
4:53 AM 30.0 °F - 23.0 °F 75% 30.22 in 10.0 mi Calm Calm - N/A   Clear
5:53 AM 30.0 °F 26.5 °F 21.9 °F 72% 30.26 in 10.0 mi NW 3.5 mph - N/A   Clear
6:53 AM 27.0 °F - 23.0 °F 85% 30.27 in 10.0 mi Calm Calm - N/A   Clear
7:53 AM 28.0 °F - 23.0 °F 81% 30.29 in 10.0 mi Calm Calm - N/A   Clear
8:53 AM 34.0 °F - 24.1 °F 67% 30.31 in 10.0 mi Calm Calm - N/A   Clear
9:53 AM 37.9 °F 32.1 °F 24.1 °F 57% 30.32 in 10.0 mi North 8.1 mph - N/A   Clear
10:53 AM 39.9 °F 32.9 °F 25.0 °F 55% 30.32 in 10.0 mi NNW 11.5 mph 21.9 mph N/A   Scattered Clouds
11:53 AM 42.1 °F 38.4 °F 25.0 °F 51% 30.32 in 10.0 mi NNW 5.8 mph - N/A   Partly Cloudy
12:53 PM 44.1 °F 37.7 °F 25.0 °F 47% 30.31 in 10.0 mi North 12.7 mph 18.4 mph N/A   Clear
1:53 PM 46.0 °F 41.0 °F 26.1 °F 46% 30.30 in 10.0 mi NNW 10.4 mph - N/A   Clear
2:53 PM 46.9 °F - 26.1 °F 44% 30.30 in 10.0 mi NW 6.9 mph - N/A   Clear
3:53 PM 46.9 °F - 26.1 °F 44% 30.31 in 10.0 mi North 8.1 mph - N/A   Clear
4:53 PM 45.0 °F 39.7 °F 26.1 °F 48% 30.32 in 10.0 mi North 10.4 mph - N/A   Clear
5:53 PM 41.0 °F 36.4 °F 25.0 °F 53% 30.35 in 10.0 mi North 6.9 mph - N/A   Clear
6:53 PM 39.9 °F - 25.0 °F 55% 30.36 in 10.0 mi Calm Calm - N/A   Clear
7:53 PM 35.1 °F - 26.1 °F 70% 30.39 in 10.0 mi Calm Calm - N/A   Clear
8:53 PM 34.0 °F - 27.0 °F 75% 30.40 in 10.0 mi Calm Calm - N/A   Overcast
9:53 PM 35.1 °F - 28.0 °F 76% 30.42 in 10.0 mi Calm Calm - N/A   Overcast
10:53 PM 36.0 °F - 28.9 °F 76% 30.43 in 10.0 mi Calm Calm - N/A   Overcast
11:53 PM 34.0 °F - 28.9 °F 82% 30.44 in 10.0 mi Calm Calm - N/A   Mostly Cloudy